DW4776 Weather Reports


time (UTC)temp
C
wind
direction
speed
KPH
gust
KPH
rain 1hr
cm
rain 24hr
cm
rain mn
cm
humidity
%
barometer
mb
20260503013039 17 26 1.6 6.4 0.00 0.00 0.00 36 1015.6
20260503011547 17 351 4.8 8.0 0.00 0.00 0.00 36 1015.7
20260503010048 17 2 0.0 6.4 0.00 0.00 0.00 36 1015.8
20260503004547 17 2 3.2 9.7 0.00 0.00 0.00 36 1016.0
20260503003037 17 12 3.2 8.0 0.00 0.00 0.00 36 1016.1
20260503001538 17 12 3.2 8.0 0.00 0.00 0.00 37 1016.3
20260503000037 17 29 4.8 12.9 0.00 0.00 0.00 36 1016.3
20260502234544 17 19 6.4 12.9 0.00 0.00 0.00 36 1016.4
20260502233043 17 324 1.6 11.3 0.00 0.00 0.00 36 1016.6
20260502231539 17 50 3.2 9.7 0.00 0.00 0.00 36 1016.8
20260502230034 17 67 4.8 9.7 0.00 0.00 0.00 37 1017.0
20260502224537 17 12 6.4 9.7 0.00 0.00 0.00 36 1017.2
20260502223040 17 353 4.8 19.3 0.00 0.00 0.00 36 1017.4
20260502221534 17 23 4.8 19.3 0.00 0.00 0.00 37 1017.6
20260502220039 17 25 4.8 16.1 0.00 0.00 0.00 36 1017.9
20260502214538 16 343 8.0 14.5 0.00 0.00 0.00 37 1018.1
20260502213037 17 23 3.2 4.8 0.00 0.00 0.00 36 1018.2
20260502211543 16 218 4.8 12.9 0.00 0.00 0.00 37 1018.3
20260502210040 16 143 1.6 8.0 0.00 0.00 0.00 38 1018.6
20260502204536 16 83 1.6 17.7 0.00 0.00 0.00 39 1018.6
20260502203039 16 45 11.3 20.9 0.00 0.00 0.00 39 1018.7
20260502201538 16 56 8.0 17.7 0.00 0.00 0.00 39 1018.7
20260502200038 16 351 8.0 17.7 0.00 0.00 0.00 40 1019.0
20260502194538 15 40 9.7 22.5 0.00 0.00 0.00 42 1019.2
20260502193041 15 66 12.9 22.5 0.00 0.00 0.00 45 1019.4
20260502191536 14 45 16.1 27.4 0.00 0.00 0.00 44 1019.5
20260502190041 14 25 12.9 22.5 0.00 0.00 0.00 44 1019.6
20260502184549 14 4 11.3 20.9 0.00 0.00 0.00 44 1019.6
20260502183050 14 357 12.9 24.1 0.00 0.00 0.00 44 1019.7
20260502181542 14 2 19.3 25.7 0.00 0.00 0.00 44 1019.8
20260502163046 15 356 17.7 30.6 0.00 0.00 0.00 41 1019.7
20260502161542 15 10 20.9 30.6 0.00 0.00 0.00 41 1019.7
20260502151543 14 45 22.5 30.6 0.00 0.00 0.00 44 1019.6
20260502123040 8 21 11.3 17.7 0.00 0.00 0.00 55 1018.6
20260502121537 8 4 14.5 20.9 0.00 0.00 0.00 54 1018.7
20260502114544 8 9 16.1 24.1 0.00 0.00 0.00 53 1018.4
20260502113041 9 20 17.7 25.7 0.00 0.00 0.00 52 1018.0
20260502111537 10 29 20.9 32.2 0.00 0.00 0.00 51 1018.0
20260502110039 10 35 20.9 30.6 0.00 0.00 0.00 51 1017.6
20260502104547 10 25 20.9 32.2 0.00 0.00 0.00 49 1017.3
20260502103039 10 36 20.9 32.2 0.00 0.00 0.00 48 1017.0
20260502101607 10 16 22.5 29.0 0.00 0.00 0.00 48 1016.8
20260502070053 12 50 4.8 12.9 0.00 0.00 0.00 32 1015.4
20260502064539 14 29 8.0 16.1 0.00 0.00 0.00 29 1015.3
20260502063039 13 33 9.7 17.7 0.00 0.00 0.00 30 1015.4
20260502061536 13 12 11.3 16.1 0.00 0.00 0.00 30 1015.4
20260502060038 13 358 12.9 19.3 0.00 0.00 0.00 30 1015.3
20260502054541 12 351 6.4 17.7 0.00 0.00 0.00 33 1015.3
20260502053037 13 303 11.3 17.7 0.00 0.00 0.00 33 1015.2
20260502051548 12 325 11.3 17.7 0.00 0.00 0.00 34 1015.3
20260502050042 12 326 14.5 17.7 0.00 0.00 0.00 34 1015.2
20260502044538 13 328 14.5 19.3 0.00 0.00 0.00 33 1015.1
20260502043035 14 325 11.3 22.5 0.00 0.00 0.00 30 1015.0
20260502041611 13 293 17.7 22.5 0.00 0.00 0.00 31 1015.2
20260502040046 14 308 14.5 17.7 0.00 0.00 0.00 27 1015.0
20260502034537 14 307 14.5 17.7 0.00 0.00 0.00 27 1015.0
20260502033041 15 314 12.9 17.7 0.00 0.00 0.00 26 1015.0
20260502031539 16 306 12.9 20.9 0.00 0.00 0.00 23 1014.7
20260502030040 16 319 14.5 20.9 0.00 0.00 0.00 21 1014.5
20260502024542 16 302 11.3 17.7 0.00 0.00 0.00 21 1014.6
20260502023039 17 266 6.4 11.3 0.00 0.00 0.00 19 1014.3
20260502021539 18 256 12.9 19.3 0.00 0.00 0.00 17 1014.2
20260502020039 20 256 9.7 16.1 0.00 0.00 0.00 16 1014.1
20260502014538 20 256 14.5 22.5 0.00 0.00 0.00 15 1014.1